Regional Weather Roundup
Issued by NWS Charleston, SC

Current Version | Previous Version | Graphics & Text | Print | Product List | Glossary On
Versions: 1 2 3 4 5 6 7 8 9 10 11 12 13 14 15 16 17 18 19 20 21 22 23 24 25 26 27 28 29 30 31 32 33 34 35 36 37 38 39 40 41 42 43 44 45 46 47 48 49 50
000 ASUS42 KCHS 010625 RWRCHS REGIONAL WEATHER ROUNDUP NATIONAL WEATHER SERVICE CHARLESTON SC 200 AM EDT WED OCT 01 2014 NOTE: "FAIR" INDICATES FEW OR NO CLOUDS BELOW 12,000 FEET WITH NO SIGNIFICANT WEATHER AND/OR OBSTRUCTIONS TO VISIBILITY. NOT ALL STATIONS ARE QUALITY CONTROLLED BY THE NATIONAL WEATHER SERVICE. USE DATA WITH CAUTION...ESPECIALLY DEWPOINT OBSERVATIONS. SCZ027-030-031-034>040-042>050-010700- ...SOUTH CAROLINA... CITY SKY/WX TMP DP RH WIND PRES REMARKS N CHARLESTON CLEAR 67 63 87 CALM 29.90S 6HR MIN TEMP: 67; 6HR MAX TEMP: 74; WATERFRONT PRK N/A 72 N/A N/A NW5 N/A FORT JOHNSON NOT AVBL MOUNT PLEASANT FAIR 64 64 100 CALM 29.90S FOG JOHNS ISLAND CLEAR 66 66 100 CALM 29.91R PINOPOLIS N/A 73 68 83 CALM 29.84S MONCKS CORNER FAIR 64 64 100 CALM 29.90S FOG SUMMERVILLE FAIR 63 63 100 CALM 29.92R BEAUFORT MCAS CLEAR 67 65 93 CALM 29.90S 6HR MIN TEMP: 66; 6HR MAX TEMP: 73; BEAUFORT ARPT FAIR 68 68 100 W3 29.90R HILTON HEAD IS CLEAR 66 66 100 CALM 29.91S GEORGETOWN NOT AVBL WALTERBORO CLEAR 63 N/A N/A CALM 29.92R ORANGEBURG CLEAR 64 62 93 CALM 29.91F 6HR MIN TEMP: 63; 6HR MAX TEMP: 71; BARNWELL FAIR 63 63 100 CALM 29.92S AIKEN FAIR 61 61 100 CALM 29.95F MANNING FAIR 63 N/A N/A CALM 29.91S KINGSTREE NOT AVBL COLUMBIA CLEAR 64 60 87 CALM 29.91F 6HR MIN TEMP: 64; 6HR MAX TEMP: 76; SUMTER CLEAR 62 60 91 CALM 29.90F 6HR MIN TEMP: 62; 6HR MAX TEMP: 73; FLORENCE FOG 63 61 93 CALM 29.91F VSB 3/4 6HR MIN TEMP: 62; 6HR MAX TEMP: 71; MYRTLE BEACH CLEAR 64 61 88 MISG 29.90S N MYRTLE BEACH CLEAR 64 62 93 NE5 29.90S 6HR MIN TEMP: 64; 6HR MAX TEMP: 72; $$ GAZ063-065-086>088-099>101-113>116-118-119-134-136>141-150-010700- ...GEORGIA... CITY SKY/WX TMP DP RH WIND PRES REMARKS SAVANNAH ARPT CLEAR 67 64 90 CALM 29.90S 6HR MIN TEMP: 67; 6HR MAX TEMP: 76; HUNTER AAF CLEAR 65 65 100 W2 29.88S 6HR MIN TEMP: 65; 6HR MAX TEMP: 73; FORT STEWART CLEAR 65 64 96 CALM 29.89S 6HR MIN TEMP: 65; 6HR MAX TEMP: 73; STATESBORO NOT AVBL SYLVANIA CLEAR 66 65 98 CALM 29.92R CLAXTON FAIR 64 64 100 CALM 29.91S THOMSON CLEAR 63 63 100 CALM 29.96F AUGUSTA-BUSH CLEAR 60 60 100 CALM 29.91S FOG 6HR MIN TEMP: 59; 6HR MAX TEMP: 72; AUGUSTA-DANIEL CLEAR 69 65 86 CALM 29.92F SWAINSBORO FAIR 64 64 100 CALM 29.93R VIDALIA CLEAR 66 64 94 CALM 29.91F ALMA FOG 66 65 96 CALM 29.91R VSB 1/2 6HR MIN TEMP: 66; 6HR MAX TEMP: 75; WAYCROSS CLEAR 72 71 99 CALM 29.91S JESUP FAIR 68 66 94 CALM 29.91S BRUNSWICK N/A 66 64 94 CALM 29.91R VSB 1/2 SAINT SIMONS CLEAR 67 65 93 CALM 29.90S 6HR MIN TEMP: 67; 6HR MAX TEMP: 73; $$ SCZ027-028-034-036>038-045-046-048>050-GAZ119-141-010700- ...LAKE AND SUPPLEMENTAL COASTAL OBSERVATIONS... STATION/POSITION TIME TEMP WIND PRES WAVE SWELL AIR SEA DIR/SP/G HT/PER HT/PER/DIR (UTC) (F) (DEG/KT/KT) (MB) (FT/S) (FT/S/D) UPR LAKE MARION NOT AVBL WINYAH BAY 0600 68 330/ 5 1012.0S LAKE MURRAY 0500 68 CALM 1012.9S ACE BASIN NERRS 0600 66 CALM 1012.0S FORT PULASKI 0600 71 300/ 3/ 3 1012.6R SAPELO ISLAND NOT AVBL $$ ANZ835-935-AMZ111-154-330-350-352-354-374-450-454-472-010700- ...C-MAN AND BUOY OBSERVATIONS... STATION/POSITION TIME TEMP WIND PRES WAVE SWELL AIR SEA DIR/SP/G HT/PER HT/PER/DIR (UTC) (F) (DEG/KT/KT) (MB) (FT/S) (FT/S/D) FOLLY BEACH CMAN 0600 69 310/ 3/ 4 1012.8S BUOY 41004 0600 77 81 360/ 8/ 10 1011.4F 3/ 6 3/ 6 BUOY 41008 0600 77 79 50/ 8/ 10 1012.0F 3/ 7 2/ 70/ 7 5E ST. MARYS GA 0600 79 N/A 3/ 6 FRYING PAN BUOY NOT AVBL BUOY 41025 0600 72 360/ 16/ 19 1011.1S 4/ 6 2/ 30/13 CAPE LOOKOUT NC 0600 69 360/ 9/ 11 1011.9R BUOY 41002 0524 77 80 360/ 10/ 12 1008.6F 3/ 7 3/ 10/ 7 BUOY 41010 0600 81 84 30/ 8/ 10 1010.7F 3/ 8 3/ 40/ 8 BUOY 41012 NOT AVBL ST AUGUSTINE FL 0600 77 20/ 12/ 13 1012.3S CAPERS NEARSHORE 0500 73 330/ 8/ 8 N/A FRIPP NEARSHORE NOT AVBL $$

USA.gov is the U.S. government's official web portal to all federal, state and local government web resources and services.